Location: Newark
(39.6867°N, 100.6772°W)
Time: 01:57:02
(UTC+00:00)

Vanguard 1 Rocket - Pass Details

Date: 28 October 2019
Orbit: 651 x 4226 km, 34.3° (Epoch: 18 November)

Event Time Altitude Azimuth Distance (km) Brightness Sun altitude
Rises 23:50:12 0° 280° (W) 7,848 13.6 -1.4°
Reaches altitude 10° 23:58:17 10° 264° (W) 7,216 13.9 -2.9°
Maximum altitude 00:12:08 18° 231° (SW) 6,714 12.8 -5.5°
Drops below altitude 10° 00:25:54 10° 197° (SSW) 7,011 12.3 -8.1°
Sets 00:33:55 0° 180° (S) 7,529 12.2 -9.6°
